Location: Peebles
(55.6412°N, 3.1714°W)
Time: 03:02:06
(UTC+00:00)

ISS - Visible Passes

Search period start: 22 March 2023 00:00
Search period end: 01 April 2023 01:00
Orbit: 414 x 423 km, 51.6° (Epoch: 22 March)

Date Brightness Start Highest point End Pass type
(mag) Time Alt. Az. Time Alt. Az. Time Alt. Az.
22 Mar -2.7 19:15:45 10° SW 19:18:47 32° SSE 19:21:37 11° E visible
22 Mar -2.8 20:52:01 10° WSW 20:54:34 36° SW 20:54:34 36° SW visible
23 Mar -3.2 20:04:16 10° WSW 20:07:27 42° S 20:08:42 28° SE visible
23 Mar -1.1 21:40:52 10° W 21:41:39 15° WSW 21:41:39 15° WSW visible
24 Mar -3.0 19:16:31 10° WSW 19:19:41 40° S 19:22:47 10° ESE visible
24 Mar -2.7 20:53:01 10° W 20:55:44 33° SSW 20:55:44 33° SSW visible
25 Mar -3.0 20:05:10 10° WSW 20:08:19 38° S 20:09:46 25° SE visible
25 Mar -1.0 21:42:06 10° WSW 21:42:42 13° WSW 21:42:42 13° WSW visible
26 Mar -3.0 20:17:19 10° WSW 20:20:30 41° S 20:23:41 10° ESE visible
26 Mar -2.2 21:54:03 10° W 21:56:42 24° SSW 21:56:42 24° SSW visible
27 Mar -2.5 21:06:03 10° W 21:09:01 29° SSW 21:10:41 19° SSE visible
28 Mar -2.6 20:18:04 10° W 20:21:10 35° SSW 20:24:15 10° SE visible
28 Mar -1.5 21:55:19 10° WSW 21:57:18 15° SSW 21:57:36 15° SSW visible
29 Mar -1.7 21:07:01 10° WSW 21:09:30 19° SSW 21:11:35 12° SSE visible
30 Mar -2.0 20:18:51 10° W 20:21:39 24° SSW 20:24:26 10° SSE visible
31 Mar -1.0 21:08:41 10° SW 21:09:44 11° SW 21:10:48 10° SSW visible
